Overview Statistics Trail Chart Weather Telemetry Raw packets
 

This is the latest recevied weather packets stored in our database for station/object 4S6DRJ-13. If no packets are shown the sender has not sent any weather packets the latest 10 day(s).

<< 550 551 552 553 554 555 556 >>
Time Temp. Humidity Pressure Rain* Wind** Luminosity Snow
1787601297 26.11° C 90% 1010.3 hPa 0 mm 0.89 m/s, 119° 0 W/m² -
1787601235 26.11° C 90% 1010.4 hPa 0 mm 0.45 m/s, 135° 0 W/m² -
1787601175 26.11° C 90% 1010.4 hPa 0 mm 0.45 m/s, 170° 0 W/m² -
1787601113 26.11° C 89% 1010.2 hPa 0 mm 0.89 m/s, 169° 0 W/m² -
1787601052 26.11° C 89% 1010.4 hPa 0 mm 0.89 m/s, 113° 0 W/m² -
1787600992 26.11° C 89% 1010.3 hPa 0 mm 0 m/s 0 W/m² -
1787600930 26.11° C 89% 1010.3 hPa 0 mm 0.45 m/s, 78° 0 W/m² -
1787600870 26.11° C 89% 1010.5 hPa 0 mm 0.89 m/s, 139° 0 W/m² -
1787600808 26.11° C 89% 1010.6 hPa 0 mm 0.89 m/s, 116° 0 W/m² -
1787600747 26.11° C 89% 1010.4 hPa 0 mm 0.45 m/s, 150° 0 W/m² -
1787600687 26.11° C 89% 1010.6 hPa 0 mm 0.45 m/s, 140° 0 W/m² -
1787600625 26.11° C 88% 1010.5 hPa 0 mm 0.89 m/s, 144° 0 W/m² -
1787600565 26.11° C 88% 1010.4 hPa 0 mm 0.45 m/s, 158° 0 W/m² -
1787600503 26.67° C 88% 1010.5 hPa 0 mm 1.34 m/s, 119° 0 W/m² -
1787600443 26.67° C 88% 1010.4 hPa 0 mm 0.45 m/s, 154° 0 W/m² -
1787600381 26.67° C 88% 1010.5 hPa 0 mm 0.89 m/s, 110° 0 W/m² -
1787600320 26.67° C 87% 1010.4 hPa 0 mm 0.89 m/s, 141° 0 W/m² -
1787600259 26.67° C 87% 1010.5 hPa 0 mm 0.45 m/s, 152° 0 W/m² -
1787600199 26.67° C 87% 1010.4 hPa 0 mm 0 m/s 0 W/m² -
1787600138 26.67° C 87% 1010.4 hPa 0 mm 0.45 m/s, 109° 0 W/m² -
1787600077 26.67° C 87% 1010.3 hPa 0 mm 0.45 m/s, 147° 0 W/m² -
1787600015 26.67° C 87% 1010.4 hPa 0 mm 0.89 m/s, 143° 0 W/m² -
1787599954 26.67° C 87% 1010.7 hPa 0 mm 0.45 m/s, 149° 0 W/m² -
1787599893 26.67° C 87% 1010.7 hPa 0 mm 0.89 m/s, 158° 0 W/m² -
1787599832 26.67° C 87% 1010.6 hPa 0 mm 0.45 m/s, 189° 0 W/m² -

* Rain latest hour (hover to see other rain measurements)
** Current wind speed in m/s (hover to see current wind gust speed)